This is the latest recevied weather packets stored in our database for station/object VK4TOM-13. If no packets are shown the sender has not sent any weather packets the latest 10 day(s).
| Time | Temp. | Humidity | Pressure | Rain* | Wind** | Luminosity | Snow |
|---|---|---|---|---|---|---|---|
| 1777449621 | 24.44° C | 70% | 1019.6 hPa | 0 mm | - | - | - |
| 1777449020 | 24.44° C | 70% | 1019.5 hPa | 0 mm | - | - | - |
| 1777448419 | 25° C | 70% | 1019.4 hPa | 0 mm | - | - | - |
| 1777447818 | 25° C | 70% | 1019.3 hPa | 0 mm | - | - | - |
| 1777447216 | 25.56° C | 70% | 1019.1 hPa | 0 mm | - | - | - |
| 1777446616 | 25.56° C | 70% | 1018.9 hPa | 0 mm | - | - | - |
| 1777446014 | 26.11° C | 70% | 1018.8 hPa | 0 mm | - | - | - |
| 1777445414 | 26.11° C | 70% | 1018.7 hPa | 0 mm | - | - | - |
| 1777444812 | 26.67° C | 70% | 1018.5 hPa | 0 mm | - | - | - |
| 1777443610 | 27.22° C | 70% | 1018.5 hPa | 0 mm | - | - | - |
| 1777443009 | 27.78° C | 70% | 1018.4 hPa | 0 mm | - | - | - |
| 1777442408 | 28.33° C | 70% | 1018.3 hPa | 0 mm | - | - | - |
| 1777442227 | 28.33° C | 70% | 1018.3 hPa | 0 mm | - | - | - |
| 1777441976 | 28.89° C | 70% | 1018.2 hPa | 0 mm | - | - | - |
| 1777441375 | 29.44° C | 70% | 1018.2 hPa | 0 mm | - | - | - |
| 1777440774 | 30° C | 70% | 1018.1 hPa | 0 mm | - | - | - |
| 1777440173 | 30.56° C | 70% | 1018.2 hPa | 0 mm | - | - | - |
| 1777439572 | 30.56° C | 70% | 1018.1 hPa | 0 mm | - | - | - |
| 1777438971 | 30.56° C | 70% | 1018.1 hPa | 0 mm | - | - | - |
| 1777438369 | 30.56° C | 66% | 1018.1 hPa | 0 mm | - | - | - |
| 1777438188 | 31.11° C | 63% | 1018.1 hPa | 0 mm | - | - | - |
| 1777437788 | 31.67° C | 63% | 1018 hPa | 0 mm | - | - | - |
| 1777437556 | 31.67° C | 67% | 1018 hPa | 0 mm | - | - | - |
| 1777437345 | 31.67° C | 68% | 1018 hPa | 0 mm | - | - | - |
| 1777436143 | 31.67° C | 70% | 1018 hPa | 0 mm | - | - | - |
* Rain since midnight (hover to see other rain measurements)
** Current wind speed in m/s (hover to see current wind gust speed)